sat.trackr.live / text

‹ back to catalog

STARLINK-35174

NORAD 65615 · 2025-207Z

PAYLOAD ACTIVE UNKNOWN

§ Identity

Operator
Country
US
Launch date
2025-09-13
Launch site
AFWTR
Launch vehicle
Mass (kg)
RCS (m²)

Purposes: comms

External: N2YO · Heavens-Above · Gunter

§ Orbital elements

Epoch: 2026-09-20T22:00:03.000096Z

Period
93.91 min
Inclination
97.2850°
Eccentricity
0.0001708
Mean motion
15.33447860 rev/d
Perigee alt
464.4 km
Apogee alt
466.7 km
Semi-major
6,843.7 km
B*
-1.4139e-4
RAAN
326.3962°
Arg perigee
95.4208°
Mean anomaly
95.0241°
Rev number
580

§ Raw data

STARLINK-351741 65615U 25207Z   26263.91670139 -.00004638  00000+0 -14139-3 0  99972 65615  97.2850 326.3962 0001708  95.4208  95.0241 15.33447860  5806

JSON: /api/v1/satellites/65615 · /tle

For live sub-satellite position, see the globe view (requires WebGL).

§ Visibility from observer

Set your observer location to see the next 7 days of passes ≥ 10°. The values pass through the URL so the page stays shareable.

No JS? Fill the form by hand. The geolocation button needs JavaScript.